Home > Weather > Narragansett > Past weeks

Flag for USA Weather for the Past 2 Weeks in Narragansett, Rhode Island, USA

Now
44 °F

Mostly cloudy.


Feels Like: 42 °F
Forecast: 42 / 53 °F
Wind: 5 mph from East

Location: Newport State Airport

Current Time: Apr 29, 2016 at 2:35:23 AM

Latest Report: Apr 29, 2016 at 1:53 AM


Visibility: 10 mi

Pressure: 30.08 "Hg

Humidity: 79%

Dew Point: 38 °F

Location of NarragansettLocation

Historic Weather in Narragansett — Graph

°F

Narragansett Temperature Yesterday

Maximum temperature yesterday: 52 °F (at 11:53 AM)
Minimum temperature yesterday: 41 °F (at 5:53 AM)
Average temperature yesterday: 46 °F

High & Low Weather Summary for the Past Weeks

 TemperatureHumidityPressure
High72 °F (Apr 18, 11:53 AM)97% (Apr 23, 5:53 AM)30.44 "Hg (Apr 23, 5:53 AM)
Low36 °F (Apr 13, 11:53 PM)20% (Apr 15, 2:53 PM)29.70 "Hg (Apr 26, 12:53 PM)
Average49 °F62%30.09 "Hg
* Reported Apr 13 11:53 PM — Apr 28 11:53 PM, Narragansett, Weather by CustomWeather, © 2016

Note: Actual official high and low records may vary slightly from our data, if they occured in-between our weather recording intervals... More about our weather records

Advertising

Narragansett Weather History for the Previous 24 Hours

Scroll right to see more
 ConditionsComfort  
Time TempWeatherWind HumidityBarometerVisibility
11:53 PM
Thu, Apr 28
44 °FOvercast.3 mph73%30.09 "Hg10 mi
10:53 PM45 °FOvercast.7 mph68%30.09 "Hg10 mi
9:53 PM45 °FPassing clouds.6 mph68%30.09 "Hg10 mi
8:53 PM45 °FClear.7 mph68%30.08 "Hg10 mi
7:53 PM46 °FPartly sunny.7 mph66%30.07 "Hg10 mi
6:53 PM46 °FSunny.8 mph63%30.06 "Hg10 mi
5:53 PM47 °FSunny.10 mph59%30.06 "Hg10 mi
4:53 PM47 °FSunny.15 mph54%30.04 "Hg10 mi
3:53 PM48 °FSunny.10 mph59%30.03 "Hg10 mi
2:53 PM50 °FSunny.13 mph50%30.03 "Hg10 mi
1:53 PM52 °FSunny.13 mph38%30.05 "Hg10 mi
12:53 PM51 °FSunny.12 mph39%30.04 "Hg10 mi
11:53 AM52 °FSunny.6 mph40%30.05 "Hg10 mi
10:53 AM51 °FSunny.3 mph31%30.06 "Hg10 mi
9:53 AM50 °FSunny.6 mph32%30.06 "Hg10 mi
8:53 AM48 °FSunny.10 mph32%30.05 "Hg10 mi
7:53 AM46 °FSunny.7 mph40%30.04 "Hg10 mi
6:53 AM43 °FSunny.No wind60%30.02 "Hg10 mi
5:53 AM41 °FClear.5 mph65%29.98 "Hg10 mi
4:53 AM42 °FClear.8 mph65%29.96 "Hg10 mi
3:53 AM43 °FClear.6 mph74%29.94 "Hg10 mi
2:53 AM42 °FClear.6 mph85%29.90 "Hg10 mi
Weather by CustomWeather, © 2016

See weather overviewHow to use our weather pages